Location: Montreal
(45.5087°N, 73.5540°W)
Time: 15:50:45
(UTC-04:00)

Envisat - Pass Details

Date: 01 February 2023
Orbit: 763 x 765 km, 98.2° (Epoch: 01 April)

Event Time Altitude Azimuth Distance (km) Brightness Sun altitude
Rises 05:17:39 0° 2° (N) 3,245 6.2 -20.8°
Reaches altitude 10° 05:20:21 10° 349° (NNW) 2,313 5.3 -20.3°
Enters shadow 05:21:53 17° 335° (NNW) 1,883 4.7 -20.1°
